Peotone Weather
Station Historical Data
 
Daily Summary for April 25, 2015 Units:  English    Metric   Both
« Previous Day
Next Day »
Daily Weekly Monthly Yearly Custom
  Current: High: Low: Average:
Temperature: 43.6 °F 45.1 °F 43.1 °F 44 °F
Dew Point: 41.4 °F 41.7 °F 39.9 °F 41.1 °F
Humidity: 92% 92% 82% 90%
Wind Speed: 9.2mph 12.6mph 1.1mph 5mph
Wind Gust: 10.3mph 13.8mph - -
WindENE - - ENE
Pressure: 29.81 in 29.88 in 29.79 in -
Precipitation: 0.03 in      
Historical Graphs
 
 
Tabular Data for April 25, 2015
Time Temperature Dew Point Pressure Wind Wind Speed Wind Gust Humidity Rainfall Rate (Hourly) solar Conditions
00:00 45.1 °F 39.9 °F 29.86 in East 2.3 mph 5.8 mph 82% 0.07 in 0.00 W/m2
00:05 44.8 °F 40.6 °F 29.87 in East 2.3 mph 6.9 mph 85% 0.07 in 0.00 W/m2
00:10 44.6 °F 40.7 °F 29.87 in ENE 5.8 mph 6.9 mph 86% 0.07 in 0.00 W/m2
00:16 44.6 °F 40.7 °F 29.88 in NE 3.4 mph 9.2 mph 86% 0.08 in 0.00 W/m2
00:21 44.6 °F 41.0 °F 29.87 in NE 6.9 mph 6.9 mph 87% 0.08 in 0.00 W/m2
00:26 44.5 °F 40.9 °F 29.87 in NE 2.3 mph 8.1 mph 87% 0.08 in 0.00 W/m2
00:31 44.5 °F 40.9 °F 29.87 in NE 4.6 mph 8.1 mph 87% 0.08 in 0.00 W/m2
00:36 44.4 °F 40.8 °F 29.86 in NE 6.9 mph 9.2 mph 87% 0.08 in 0.00 W/m2
00:41 44.3 °F 40.7 °F 29.86 in ENE 2.3 mph 8.1 mph 87% 0.06 in 0.00 W/m2
00:46 44.3 °F 41.0 °F 29.85 in ENE 5.8 mph 8.1 mph 88% 0.05 in 0.00 W/m2
00:51 44.2 °F 40.9 °F 29.86 in NE 5.8 mph 10.3 mph 88% 0.05 in 0.00 W/m2
00:56 44.2 °F 40.9 °F 29.86 in NE 1.1 mph 6.9 mph 88% 0.04 in 0.00 W/m2
01:01 44.1 °F 41.1 °F 29.85 in NE 8.1 mph 10.3 mph 89% 0.03 in 0.00 W/m2
01:06 44.0 °F 41.0 °F 29.84 in NE 4.6 mph 11.5 mph 89% 0.03 in 0.00 W/m2
01:11 43.9 °F 40.9 °F 29.83 in East 3.4 mph 11.5 mph 89% 0.03 in 0.00 W/m2
01:16 43.9 °F 40.9 °F 29.83 in ENE 1.1 mph 8.1 mph 89% 0.02 in 0.00 W/m2
01:22 43.9 °F 40.9 °F 29.82 in ENE 8.1 mph 8.1 mph 89% 0.02 in 0.00 W/m2
01:27 44.0 °F 41.3 °F 29.82 in East 3.4 mph 6.9 mph 90% 0.02 in 0.00 W/m2
01:32 44.1 °F 41.4 °F 29.81 in SE 9.2 mph 11.5 mph 90% 0.02 in 0.00 W/m2
01:37 44.2 °F 41.5 °F 29.81 in East 5.8 mph 6.9 mph 90% 0.01 in 0.00 W/m2
01:42 44.3 °F 41.6 °F 29.82 in ENE 1.1 mph 10.3 mph 90% 0.01 in 0.00 W/m2
01:52 44.3 °F 41.6 °F 29.83 in NE 4.6 mph 10.3 mph 90% 0.01 in 0.00 W/m2
01:57 44.2 °F 41.5 °F 29.83 in NE 3.4 mph 6.9 mph 90% 0.01 in 0.00 W/m2
02:02 44.3 °F 41.6 °F 29.82 in NE 1.1 mph 6.9 mph 90% 0.01 in 0.00 W/m2
02:08 44.3 °F 41.6 °F 29.81 in NE 12.6 mph 12.6 mph 90% 0.00 in 0.00 W/m2
02:13 44.2 °F 41.7 °F 29.82 in NE 4.6 mph 5.8 mph 91% 0.00 in 0.00 W/m2
02:18 44.2 °F 41.7 °F 29.82 in NE 4.6 mph 6.9 mph 91% 0.00 in 0.00 W/m2
02:23 44.1 °F 41.7 °F 29.83 in NE 4.6 mph 6.9 mph 91% 0.00 in 0.00 W/m2
02:28 43.9 °F 41.5 °F 29.81 in NNE 2.3 mph 10.3 mph 91% 0.00 in 0.00 W/m2
02:33 43.7 °F 41.2 °F 29.80 in ENE 8.1 mph 9.2 mph 91% 0.00 in 0.00 W/m2
02:38 43.5 °F 41.0 °F 29.80 in NE 8.1 mph 9.2 mph 91% 0.00 in 0.00 W/m2
02:43 43.4 °F 41.0 °F 29.80 in ENE 8.1 mph 9.2 mph 91% 0.00 in 0.00 W/m2
02:48 43.3 °F 40.8 °F 29.79 in NE 4.6 mph 11.5 mph 91% 0.00 in 0.00 W/m2
02:54 43.2 °F 40.8 °F 29.79 in ENE 8.1 mph 12.6 mph 91% 0.00 in 0.00 W/m2
02:59 43.1 °F 40.9 °F 29.80 in ENE 4.6 mph 11.5 mph 92% 0.00 in 0.00 W/m2
03:04 43.1 °F 40.9 °F 29.79 in NE 5.8 mph 11.5 mph 92% 0.00 in 0.00 W/m2
03:09 43.1 °F 40.9 °F 29.80 in ENE 9.2 mph 9.2 mph 92% 0.00 in 0.00 W/m2
03:14 43.1 °F 40.9 °F 29.80 in ENE 3.4 mph 9.2 mph 92% 0.00 in 0.00 W/m2
03:19 43.2 °F 41.0 °F 29.80 in NE 8.1 mph 13.8 mph 92% 0.00 in 0.00 W/m2
03:24 43.3 °F 41.1 °F 29.81 in NE 1.1 mph 10.3 mph 92% 0.00 in 0.00 W/m2
03:29 43.3 °F 41.1 °F 29.81 in NE 2.3 mph 9.2 mph 92% 0.00 in 0.00 W/m2
03:35 43.4 °F 41.2 °F 29.82 in ENE 3.4 mph 10.3 mph 92% 0.00 in 0.00 W/m2
03:40 43.6 °F 41.4 °F 29.81 in ENE 9.2 mph 10.3 mph 92% 0.00 in 0.00 W/m2
Peotone Weather Data
Compliments of Weather Underground